DateTimeUTC,F1_A11,F1_S11,BsB_S11,BsG_S11,BsR_S11,BbsB_S11,BbsG_S11,BbsR_S11,BaB_A11,BaG_A11,BaR_A11,Tu_S11,T_S11,Uu_S11,U_S11,P_S11,T1_A11
2021-11-03T02:00:00Z,00000200,21000000,,,,,,,-000.15,0000.06,0000.21,18.8,25.6,00.6,00.4,0640.5,31.1
2021-11-03T02:01:00Z,00000200,21000000,,,,,,,-000.17,-000.05,-000.13,18.8,25.6,00.6,00.4,0640.5,31.1
2021-11-03T02:02:00Z,00000200,21000000,,,,,,,0000.44,0000.04,-000.08,18.7,25.6,00.3,00.2,0640.5,31.0
2021-11-03T02:03:00Z,00000200,61000000,,,,,,,-000.21,-000.01,-000.12,18.7,25.6,00.3,00.2,0640.5,31.0
2021-11-03T02:04:00Z,00000200,41000000,0001.31,0000.50,-000.00,0000.10,0000.11,0000.19,0000.16,0000.05,0000.60,18.7,25.4,00.5,00.3,0641.4,31.1
2021-11-03T02:05:00Z,00000200,01000000,0000.11,-000.12,-000.07,0000.28,0000.27,0000.29,0000.03,0000.22,-000.20,18.8,25.3,00.5,00.4,0641.5,31.1
2021-11-03T02:06:00Z,00000200,01000000,0000.43,0000.44,0000.07,-000.88,0000.13,-000.11,0000.43,0000.26,0000.51,18.9,25.4,00.7,00.4,0641.4,31.1
2021-11-03T02:07:00Z,00000200,01000000,0000.07,0000.27,0000.24,0000.25,-000.09,0000.32,0000.04,0000.17,-000.30,19.0,25.4,00.6,00.4,0641.5,31.1
2021-11-03T02:08:00Z,00000200,01000000,0000.16,0000.46,0000.03,-000.05,0000.08,0000.39,0000.23,-000.15,0000.07,19.1,25.4,00.6,00.4,0641.5,31.1
2021-11-03T02:09:00Z,00000200,01000000,0000.55,0000.10,-000.00,0000.89,-000.07,0000.33,-000.04,0000.23,0000.29,19.2,25.5,00.5,00.3,0641.5,31.2
2021-11-03T02:10:00Z,00000200,01000000,0000.24,0000.18,-000.02,0000.21,0000.19,0000.23,-000.01,0000.11,-000.09,19.3,25.5,00.4,00.3,0641.5,31.2
2021-11-03T02:11:00Z,00000200,01000000,0001.02,0000.29,0000.27,0000.55,0000.21,0000.28,0000.24,0000.25,0000.50,19.3,25.5,00.5,00.4,0641.5,31.2
2021-11-03T02:12:00Z,00000200,01000000,0000.01,0000.13,-000.18,0000.17,-000.12,-000.05,-000.22,0000.05,-000.42,19.3,25.5,00.5,00.3,0641.4,31.2
2021-11-03T02:13:00Z,00000200,01000000,-000.22,0000.43,0000.36,0000.71,0000.23,0000.03,0000.10,-000.19,0000.11,19.2,25.5,00.4,00.3,0641.5,31.1
2021-11-03T02:14:00Z,00000200,01000000,0001.15,0000.11,0000.24,0000.26,0000.24,0000.33,0000.30,0000.05,0000.20,19.2,25.5,00.5,00.3,0641.4,31.1
2021-11-03T02:15:00Z,00000200,01000000,0000.15,-000.08,0000.15,-000.01,0000.07,0000.22,-000.07,0000.25,-000.02,19.1,25.5,00.3,00.2,0641.4,31.1
2021-11-03T02:16:00Z,00000200,01000000,0001.11,-000.10,0000.22,0000.35,0000.34,0000.18,0000.15,0000.05,0000.23,19.0,25.4,00.4,00.2,0641.4,31.1
2021-11-03T02:17:00Z,00000200,01000000,0000.64,0000.49,0000.12,0001.05,-000.00,0000.09,0000.24,0000.02,-000.01,19.0,25.4,00.4,00.3,0641.4,31.1
2021-11-03T02:18:00Z,00000200,01000000,0000.23,0000.36,0000.09,0000.14,0000.04,0000.16,0000.28,0000.28,0000.16,19.0,25.4,00.4,00.3,0641.4,31.1
2021-11-03T02:19:00Z,00000200,01000000,0000.74,0000.02,-000.07,-000.10,-000.01,0000.25,-000.26,-000.31,0000.02,19.0,25.4,00.4,00.3,0641.4,31.1
2021-11-03T02:20:00Z,00000200,01000000,0000.72,0000.33,0000.52,0000.01,-000.03,0000.26,0000.08,0000.44,0000.07,19.0,25.4,00.4,00.3,0641.4,31.1
2021-11-03T02:21:00Z,00000200,01000000,0000.12,0000.03,0000.31,0000.32,0000.04,0000.05,0000.44,0000.43,0000.14,19.1,25.4,00.4,00.3,0641.4,31.1
2021-11-03T02:22:00Z,00000200,01000000,0000.79,0000.78,0000.13,0000.38,0000.14,0000.22,0000.21,-000.02,0000.30,19.2,25.4,00.5,00.3,0641.4,31.1
2021-11-03T02:23:00Z,00000200,01000000,0000.44,0000.21,0000.06,0000.29,-000.21,0000.12,0000.03,-000.05,-000.02,19.3,25.5,00.4,00.3,0641.5,31.2
2021-11-03T02:24:00Z,00000200,01000000,0000.08,0000.22,0000.06,-000.45,0000.15,0000.26,0000.36,0000.58,0000.02,19.3,25.5,00.5,00.3,0641.4,31.2
2021-11-03T02:25:00Z,00000200,01000000,0000.18,0000.17,-000.17,0000.30,0000.13,0000.22,0000.04,0000.17,0000.26,19.4,25.6,00.5,00.3,0641.4,31.2
2021-11-03T02:26:00Z,00000200,01000000,0000.09,-000.04,0000.23,0000.44,0000.20,-000.00,0000.20,0000.00,0000.17,19.3,25.6,00.5,00.4,0641.4,31.2
2021-11-03T02:27:00Z,00000200,01000000,0000.09,0000.34,0000.29,-000.17,0000.46,0000.04,0000.22,0000.07,0000.09,19.3,25.5,00.5,00.3,0641.4,31.1
2021-11-03T02:28:00Z,00000200,01000000,0000.37,0000.15,-000.15,0000.79,0000.15,-000.16,0000.11,0000.28,0000.05,19.2,25.5,00.5,00.4,0641.3,31.1
2021-11-03T02:29:00Z,00000200,01000000,0000.71,0000.15,0000.25,-000.32,-000.02,0000.32,-000.03,0000.08,-000.08,19.2,25.5,00.4,00.3,0641.3,31.1
2021-11-03T02:30:00Z,00000200,01000000,0000.72,0000.19,0000.26,-000.24,0000.36,-000.21,0000.19,0000.10,0000.19,19.1,25.5,00.5,00.3,0641.3,31.1
2021-11-03T02:31:00Z,00000200,01000000,-000.03,0000.24,-000.26,0000.10,0000.17,0000.13,-000.07,-000.03,0000.05,19.0,25.4,00.6,00.4,0641.3,31.1
2021-11-03T02:32:00Z,00000200,01000000,0000.28,0000.50,0000.10,0000.11,0000.15,0000.15,0000.46,0000.39,0000.16,19.0,25.4,00.5,00.3,0641.3,31.1
2021-11-03T02:33:00Z,00000200,01000000,0000.59,0000.04,0000.18,-000.31,0000.26,0000.34,0000.24,-000.15,0000.34,19.0,25.4,00.6,00.4,0641.3,31.1
2021-11-03T02:34:00Z,00000200,01000000,-000.18,0000.08,0000.19,0000.23,0000.17,0000.02,0000.27,0000.14,-000.16,19.0,25.4,00.6,00.4,0641.2,31.1
2021-11-03T02:35:00Z,00000200,01000000,0000.06,0000.26,0000.47,0000.04,0000.36,0000.46,0000.05,0000.12,0000.19,19.0,25.4,00.6,00.4,0641.3,31.1
2021-11-03T02:36:00Z,00000200,01000000,0001.17,0000.49,0000.39,0000.64,0000.29,-000.24,0000.13,0000.35,0000.38,19.1,25.4,00.5,00.4,0641.3,31.1
2021-11-03T02:37:00Z,00000200,01000000,0001.09,0000.37,-000.03,0000.33,0000.05,0000.41,-000.24,0000.06,0000.12,19.2,25.5,00.6,00.4,0641.3,31.2
2021-11-03T02:38:00Z,00000200,01000000,0001.43,0000.16,0000.16,-000.07,0000.03,0000.28,0000.34,0000.05,-000.13,19.2,25.5,00.6,00.4,0641.3,31.2
2021-11-03T02:39:00Z,00000200,01000000,0000.81,0000.37,0000.09,0000.11,0000.13,0000.14,0000.57,0000.59,-000.03,19.3,25.6,00.6,00.4,0641.3,31.2
2021-11-03T02:40:00Z,00000200,01000000,0000.97,0000.47,0000.46,0000.69,0000.44,0000.41,-000.17,-000.13,0000.42,19.4,25.6,00.6,00.4,0641.2,31.2
2021-11-03T02:41:00Z,00000200,01000000,-000.06,0000.03,0000.28,-000.02,0000.02,0000.35,0000.29,0000.10,0000.05,19.3,25.6,00.6,00.4,0641.2,31.2
2021-11-03T02:42:00Z,00000200,01000000,-000.48,0000.28,0000.08,0000.51,0000.31,0000.15,0000.19,0000.37,0000.14,19.2,25.5,00.6,00.4,0641.2,31.1
2021-11-03T02:43:00Z,00000200,01000000,0000.32,0000.10,0000.19,-000.29,0000.30,-000.06,0000.51,0000.24,0000.28,19.2,25.5,00.7,00.5,0641.2,31.1
2021-11-03T02:44:00Z,00000200,01000000,-000.03,0000.18,-000.04,0000.19,0000.06,0000.44,0000.02,0000.10,0000.20,19.1,25.5,00.7,00.5,0641.2,31.1
2021-11-03T02:45:00Z,00000200,01000000,0000.72,0000.12,0000.14,-000.04,-000.04,0000.08,0000.17,0000.28,-000.01,19.1,25.4,00.8,00.5,0641.1,31.1
2021-11-03T02:46:00Z,00000200,01000000,0000.65,0000.35,0000.25,-000.14,-000.10,0000.27,0000.40,0000.34,0000.27,19.0,25.4,00.8,00.5,0641.1,31.1
2021-11-03T02:47:00Z,00000200,01000000,0000.33,0000.25,-000.31,0000.66,-000.04,0000.07,-000.03,-000.04,0000.13,19.0,25.4,00.8,00.5,0641.0,31.1
2021-11-03T02:48:00Z,00000200,01000000,0000.11,0000.09,0000.23,0000.42,0000.03,0000.68,0000.12,0000.14,0000.28,19.0,25.3,00.8,00.6,0641.0,31.1
2021-11-03T02:49:00Z,00000200,01000000,0000.82,0000.36,-000.30,0000.62,0000.15,0000.09,0000.15,-000.05,-000.01,19.0,25.3,00.8,00.6,0641.0,31.1
2021-11-03T02:50:00Z,00000200,01000000,0000.53,0000.48,0000.25,0001.28,-000.13,0000.18,0000.52,0000.42,0000.23,19.0,25.4,00.9,00.6,0641.0,31.1
2021-11-03T02:51:00Z,00000200,01000000,0000.73,0000.21,0000.07,0000.40,0000.21,0000.46,-000.20,0000.17,0000.24,19.1,25.4,00.9,00.6,0641.0,31.1
2021-11-03T02:52:00Z,00000200,01000000,0000.44,0000.37,0000.26,0000.89,0000.15,0000.39,0000.13,0000.08,-000.10,19.2,25.4,00.9,00.6,0641.0,31.1
2021-11-03T02:53:00Z,00000200,01000000,0000.45,0000.35,0000.53,0000.41,0000.43,0000.36,-000.02,0000.39,0000.30,19.3,25.5,00.9,00.6,0641.0,31.2
2021-11-03T02:54:00Z,00000200,01000000,-000.30,0000.02,0000.27,0000.45,0000.23,0000.44,0000.58,-000.27,-000.16,19.3,25.5,00.9,00.6,0641.1,31.2
2021-11-03T02:55:00Z,00000200,01000000,-000.24,0000.19,-000.07,0000.48,0000.09,0000.07,0000.07,0000.59,-000.04,19.4,25.6,00.9,00.6,0641.0,31.2
2021-11-03T02:56:00Z,00000200,01000000,0000.46,0000.37,-000.03,0000.83,-000.12,0000.27,0000.04,-000.17,0000.52,19.3,25.6,00.9,00.6,0641.0,31.1
2021-11-03T02:57:00Z,00000200,41000000,,,,,,,-000.07,-000.17,-000.14,19.3,25.6,01.2,00.8,0641.1,31.1
2021-11-03T02:58:00Z,00000200,61000000,,,,,,,-000.02,0000.17,-000.06,19.0,25.6,00.6,00.4,0640.1,31.1
2021-11-03T02:59:00Z,00000200,21000000,,,,,,,0000.11,-000.33,-000.15,18.9,25.7,00.6,00.4,0640.1,31.1
